CW0234 Weather Reports


time (UTC)temp
C
wind
direction
speed
KPH
gust
KPH
rain 1hr
cm
rain 24hr
cm
rain mn
cm
humidity
%
barometer
mb
20260505234421 16 173 0.0 0.0 0.00 0.00 0.00 70 1014.2
20260505233918 16 174 0.0 1.6 0.00 0.00 0.00 71 1014.4
20260505233416 16 171 1.6 1.6 0.00 0.00 0.00 71 1014.2
20260505232913 16 176 0.0 0.0 0.00 0.00 0.00 71 1014.3
20260505232411 16 177 0.0 0.0 0.00 0.00 0.00 70 1014.4
20260505231907 16 163 3.2 4.8 0.00 0.00 0.00 70 1014.4
20260505231405 16 169 0.0 1.6 0.00 0.00 0.00 70 1014.4
20260505230903 16 166 1.6 3.2 0.00 0.00 0.00 71 1014.6
20260505230400 16 169 0.0 0.0 0.00 0.00 0.00 71 1014.6
20260505225856 17 176 1.6 1.6 0.00 0.00 0.00 69 1014.4
20260505225354 17 172 0.0 0.0 0.00 0.00 0.00 69 1014.5
20260505224849 17 175 0.0 0.0 0.00 0.00 0.00 69 1014.4
20260505224347 16 173 0.0 0.0 0.00 0.00 0.00 69 1014.5
20260505223843 16 169 0.0 0.0 0.00 0.00 0.00 69 1014.4
20260505223340 17 190 0.0 1.6 0.00 0.00 0.00 69 1014.6
20260505222836 16 167 0.0 1.6 0.00 0.00 0.00 69 1014.4
20260505222332 16 169 1.6 1.6 0.00 0.00 0.00 69 1014.5
20260505221830 17 172 1.6 3.2 0.00 0.00 0.00 67 1014.6
20260505221326 17 180 1.6 1.6 0.00 0.00 0.00 67 1014.7
20260505220823 16 184 1.6 1.6 0.00 0.00 0.00 69 1014.7
20260505220320 16 170 0.0 1.6 0.00 0.00 0.00 68 1014.8
20260505215818 16 177 3.2 3.2 0.00 0.00 0.00 69 1014.7
20260505215316 16 178 3.2 3.2 0.00 0.00 0.00 68 1014.7
20260505214814 16 176 0.0 0.0 0.00 0.00 0.00 69 1014.8
20260505214311 16 221 3.2 4.8 0.00 0.00 0.00 70 1014.8
20260505213808 16 176 0.0 0.0 0.00 0.00 0.00 71 1014.8
20260505213306 16 176 0.0 0.0 0.00 0.00 0.00 70 1014.9
20260505212801 16 171 1.6 1.6 0.00 0.00 0.00 69 1014.8
20260505212259 16 172 0.0 0.0 0.00 0.00 0.00 69 1015.0
20260505211755 16 173 1.6 1.6 0.00 0.00 0.00 69 1015.2
20260505211253 16 177 1.6 1.6 0.00 0.00 0.00 69 1015.1
20260505210749 16 170 3.2 4.8 0.00 0.00 0.00 69 1015.1
20260505210246 16 178 0.0 0.0 0.00 0.00 0.00 69 1014.9
20260505205743 16 177 0.0 1.6 0.00 0.00 0.00 69 1014.8
20260505205242 16 174 0.0 0.0 0.00 0.00 0.00 69 1015.0
20260505204738 16 175 1.6 1.6 0.00 0.00 0.00 69 1015.2
20260505204236 16 177 0.0 0.0 0.00 0.00 0.00 68 1015.1
20260505203732 16 173 0.0 0.0 0.00 0.00 0.00 69 1015.1
20260505203230 16 178 0.0 0.0 0.00 0.00 0.00 69 1015.0
20260505202725 16 169 0.0 1.6 0.00 0.00 0.00 68 1015.1
20260505202221 16 187 1.6 1.6 0.00 0.00 0.00 67 1015.1
20260505201718 17 172 0.0 1.6 0.00 0.00 0.00 66 1015.0
20260505201216 17 193 1.6 1.6 0.00 0.00 0.00 67 1015.1
20260505200714 16 171 0.0 0.0 0.00 0.00 0.00 70 1015.2
20260505200211 16 174 1.6 1.6 0.00 0.00 0.00 70 1015.2
20260505195706 16 174 0.0 1.6 0.00 0.00 0.00 69 1015.3
20260505195204 16 181 0.0 1.6 0.00 0.00 0.00 70 1015.7
20260505194701 16 169 0.0 0.0 0.00 0.00 0.00 70 1015.5
20260505194157 16 346 3.2 3.2 0.00 0.00 0.00 69 1015.5
20260505193653 16 171 0.0 0.0 0.00 0.00 0.00 70 1015.5
20260505193151 16 175 1.6 1.6 0.00 0.00 0.00 71 1015.6
20260505192649 16 175 0.0 1.6 0.00 0.00 0.00 71 1015.7
20260505192146 15 173 0.0 0.0 0.00 0.00 0.00 71 1015.4
20260505191645 16 173 3.2 3.2 0.00 0.00 0.00 71 1015.5
20260505191143 15 168 0.0 1.6 0.00 0.00 0.00 72 1015.5
20260505190638 15 185 1.6 3.2 0.00 0.00 0.00 72 1015.3
20260505190138 15 172 0.0 0.0 0.00 0.00 0.00 72 1015.6
20260505185635 15 209 4.8 4.8 0.00 0.00 0.00 72 1015.4
20260505185132 15 168 1.6 1.6 0.00 0.00 0.00 74 1015.2
20260505184628 15 219 1.6 3.2 0.00 0.00 0.00 72 1015.3
20260505184125 15 180 3.2 3.2 0.00 0.00 0.00 71 1015.4
20260505183622 15 168 1.6 1.6 0.00 0.00 0.00 73 1015.3
20260505183120 15 256 3.2 4.8 0.00 0.00 0.00 71 1015.2
20260505182616 15 170 1.6 1.6 0.00 0.00 0.00 72 1015.6
20260505182113 15 172 1.6 1.6 0.00 0.00 0.00 73 1015.4
20260505181609 14 172 0.0 0.0 0.00 0.00 0.00 73 1015.5
20260505181107 14 175 0.0 1.6 0.00 0.00 0.00 72 1015.2
20260505180603 14 171 0.0 0.0 0.00 0.00 0.00 73 1015.3
20260505180100 14 174 1.6 1.6 0.00 0.00 0.00 72 1015.2
20260505175556 14 178 1.6 3.2 0.00 0.00 0.00 72 1015.1
20260505175053 14 177 0.0 1.6 0.00 0.00 0.00 71 1015.2
20260505174550 14 173 0.0 0.0 0.00 0.00 0.00 72 1015.0
20260505174045 14 170 0.0 0.0 0.00 0.00 0.00 72 1014.9
20260505173542 14 171 0.0 0.0 0.00 0.00 0.00 73 1015.0
20260505173039 14 172 0.0 0.0 0.00 0.00 0.00 72 1014.9
20260505172537 14 172 0.0 0.0 0.00 0.00 0.00 71 1015.0
20260505172033 14 170 0.0 0.0 0.00 0.00 0.00 71 1015.0
20260505171528 14 165 1.6 1.6 0.00 0.00 0.00 72 1015.0
20260505171025 14 172 0.0 0.0 0.00 0.00 0.00 72 1014.9
20260505170522 14 172 0.0 1.6 0.00 0.00 0.00 72 1014.8
20260505170018 14 170 0.0 0.0 0.00 0.00 0.00 72 1014.7
20260505165514 14 170 0.0 0.0 0.00 0.00 0.00 73 1014.8
20260505165009 14 169 0.0 0.0 0.00 0.00 0.00 72 1014.6
20260505164500 14 171 0.0 1.6 0.00 0.00 0.00 72 1014.8
20260505163958 14 169 1.6 1.6 0.00 0.00 0.00 73 1015.0
20260505163456 13 166 0.0 0.0 0.00 0.00 0.00 73 1014.9
20260505162956 13 170 0.0 0.0 0.00 0.00 0.00 73 1014.7
20260505162451 13 171 1.6 1.6 0.00 0.00 0.00 74 1014.6
20260505161948 13 174 0.0 0.0 0.00 0.00 0.00 74 1014.5
20260505161444 13 171 1.6 1.6 0.00 0.00 0.00 74 1014.5
20260505160942 13 171 0.0 0.0 0.00 0.00 0.00 74 1014.6
20260505160440 13 173 0.0 0.0 0.00 0.00 0.00 76 1014.6
20260505152916 13 172 0.0 0.0 0.00 0.00 0.00 76 1014.5
20260505152408 13 171 0.0 0.0 0.00 0.00 0.00 76 1014.3
20260505151907 12 171 0.0 0.0 0.00 0.00 0.00 77 1014.4
20260505151404 12 171 0.0 0.0 0.00 0.00 0.00 77 1014.4
20260505150901 12 171 0.0 0.0 0.00 0.00 0.00 77 1014.6
20260505150358 12 171 0.0 0.0 0.00 0.00 0.00 77 1014.4
20260505140323 12 172 0.0 0.0 0.00 0.00 0.00 78 1014.0
20260505130246 12 172 0.0 0.0 0.00 0.00 0.00 79 1013.6
20260505124737 12 172 0.0 0.0 0.00 0.00 0.00 78 1013.9
20260505124234 11 172 0.0 0.0 0.00 0.00 0.00 78 1013.7
20260505123729 11 173 0.0 0.0 0.00 0.00 0.00 78 1013.8
20260505123226 12 172 0.0 0.0 0.00 0.00 0.00 79 1013.9
20260505122722 12 172 0.0 0.0 0.00 0.00 0.00 78 1013.8
20260505122220 12 173 0.0 0.0 0.00 0.00 0.00 78 1013.8
20260505121716 12 170 0.0 0.0 0.00 0.00 0.00 78 1014.0
20260505121213 12 171 0.0 0.0 0.00 0.00 0.00 77 1013.9
20260505120709 12 170 0.0 0.0 0.00 0.00 0.00 77 1014.2
20260505120205 12 169 0.0 0.0 0.00 0.00 0.00 77 1014.2
20260505115659 12 170 0.0 0.0 0.00 0.00 0.00 77 1013.8
20260505115157 12 170 0.0 0.0 0.00 0.00 0.00 77 1014.2
20260505114654 12 169 0.0 0.0 0.00 0.00 0.00 77 1013.9
20260505114150 12 169 0.0 0.0 0.00 0.00 0.00 77 1014.1
20260505113646 12 172 0.0 0.0 0.00 0.00 0.00 77 1014.1
20260505113143 12 172 0.0 0.0 0.00 0.00 0.00 77 1014.2
20260505112640 12 175 0.0 0.0 0.00 0.00 0.00 76 1014.2
20260505112138 12 175 0.0 0.0 0.00 0.00 0.00 76 1013.8
20260505111637 12 175 0.0 0.0 0.00 0.00 0.00 76 1014.2
20260505111133 12 180 1.6 1.6 0.00 0.00 0.00 76 1013.8
20260505110629 12 170 0.0 0.0 0.00 0.00 0.00 75 1013.8
20260505110127 12 179 0.0 0.0 0.00 0.00 0.00 75 1014.0
20260505102103 12 167 0.0 0.0 0.00 0.00 0.00 74 1014.0
20260505101601 12 174 0.0 0.0 0.00 0.00 0.00 74 1014.0
20260505101057 12 172 0.0 0.0 0.00 0.00 0.00 74 1014.0
20260505100553 12 171 0.0 1.6 0.00 0.00 0.00 73 1014.1
20260505100050 12 169 0.0 0.0 0.00 0.00 0.00 73 1014.1
20260505095547 12 179 0.0 1.6 0.00 0.00 0.00 73 1014.2
20260505095043 12 180 1.6 1.6 0.00 0.00 0.00 73 1014.1
20260505094540 12 171 0.0 0.0 0.00 0.00 0.00 72 1014.1
20260505094036 12 178 0.0 1.6 0.00 0.00 0.00 72 1014.0
20260505093533 12 173 0.0 0.0 0.00 0.00 0.00 73 1014.1
20260505093030 12 175 1.6 1.6 0.00 0.00 0.00 72 1014.1
20260505092527 12 170 0.0 0.0 0.00 0.00 0.00 72 1014.3
20260505092026 12 169 0.0 0.0 0.00 0.00 0.00 72 1013.9
20260505091522 12 171 0.0 0.0 0.00 0.00 0.00 71 1014.1
20260505091020 12 168 0.0 0.0 0.00 0.00 0.00 72 1014.2
20260505090518 12 189 1.6 3.2 0.00 0.00 0.00 71 1014.3
20260505090016 12 170 1.6 1.6 0.00 0.00 0.00 71 1014.5
20260505085514 12 186 3.2 4.8 0.00 0.00 0.00 71 1014.5
20260505085011 12 169 1.6 3.2 0.00 0.00 0.00 72 1014.4
20260505084509 12 165 1.6 1.6 0.00 0.00 0.00 72 1014.5
20260505084007 12 74 4.8 4.8 0.00 0.00 0.00 73 1014.6
20260505083504 12 161 3.2 3.2 0.00 0.00 0.00 72 1014.7
20260505083000 12 228 4.8 8.0 0.00 0.00 0.00 72 1014.6
20260505082456 12 154 3.2 4.8 0.00 0.00 0.00 73 1014.7
20260505081953 12 169 0.0 1.6 0.00 0.00 0.00 74 1014.7
20260505081450 12 169 0.0 1.6 0.00 0.00 0.00 74 1014.6
20260505080946 12 357 4.8 8.0 0.00 0.00 0.00 74 1014.7
20260505080443 12 129 3.2 4.8 0.00 0.00 0.00 75 1014.9
20260505075938 12 148 1.6 3.2 0.00 0.00 0.00 77 1014.8
20260505075435 12 174 3.2 3.2 0.00 0.00 0.00 79 1014.7
20260505074933 12 170 1.6 1.6 0.00 0.00 0.00 80 1014.6
20260505074430 12 161 0.0 0.0 0.00 0.00 0.00 81 1014.7
20260505073927 13 125 3.2 3.2 0.00 0.00 0.00 81 1014.6
20260505073425 13 176 3.2 3.2 0.00 0.00 0.00 82 1014.8
20260505072921 13 175 1.6 1.6 0.00 0.00 0.00 82 1014.7
20260505072417 13 191 1.6 3.2 0.00 0.00 0.00 82 1014.6
20260505071914 13 176 0.0 0.0 0.00 0.00 0.00 82 1014.6
20260505071410 13 169 0.0 0.0 0.00 0.00 0.00 81 1014.7
20260505070908 13 172 0.0 0.0 0.00 0.00 0.00 81 1014.5
20260505070404 13 174 0.0 0.0 0.00 0.00 0.00 81 1014.3
20260505065900 13 174 0.0 0.0 0.00 0.00 0.00 82 1014.2
20260505065357 12 166 1.6 1.6 0.00 0.00 0.00 82 1014.3
20260505064854 12 170 0.0 0.0 0.00 0.00 0.00 82 1014.3
20260505064351 12 170 0.0 0.0 0.00 0.00 0.00 82 1014.2
20260505063850 12 172 0.0 0.0 0.00 0.00 0.00 82 1014.4
20260505063345 12 175 0.0 0.0 0.00 0.00 0.00 81 1014.2
20260505062842 12 171 0.0 0.0 0.00 0.00 0.00 81 1014.2
20260505062339 12 170 0.0 0.0 0.00 0.00 0.00 81 1014.2
20260505061836 12 167 0.0 0.0 0.00 0.00 0.00 80 1014.2
20260505061334 13 196 3.2 3.2 0.00 0.00 0.00 80 1014.1
20260505060831 13 170 0.0 0.0 0.00 0.00 0.00 80 1014.2
20260505060328 13 170 0.0 1.6 0.00 0.00 0.00 79 1014.1
20260505055824 13 175 0.0 0.0 0.00 0.00 0.00 78 1014.2
20260505055320 13 190 1.6 3.2 0.00 0.00 0.00 78 1014.1
20260505054817 13 175 0.0 1.6 0.00 0.00 0.00 78 1014.4
20260505054314 13 181 1.6 1.6 0.00 0.00 0.00 78 1014.4
20260505053813 13 169 0.0 0.0 0.00 0.00 0.00 77 1014.2
20260505053309 13 172 0.0 0.0 0.00 0.00 0.00 77 1014.6
20260505052806 13 176 0.0 1.6 0.00 0.00 0.00 77 1014.6
20260505052304 13 172 0.0 0.0 0.00 0.00 0.00 77 1014.8
20260505051800 13 172 0.0 1.6 0.00 0.00 0.00 77 1014.7
20260505051258 13 171 0.0 0.0 0.00 0.00 0.00 76 1014.6
20260505050756 13 170 0.0 1.6 0.00 0.00 0.00 76 1014.7
20260505050254 13 169 1.6 1.6 0.00 0.00 0.00 76 1014.6
20260505041729 15 185 3.2 4.8 0.00 0.00 0.00 72 1013.9
20260505041226 15 225 3.2 3.2 0.00 0.00 0.00 71 1014.1
20260505040723 15 269 3.2 4.8 0.00 0.00 0.00 71 1014.0
20260505040220 15 22 6.4 8.0 0.00 0.00 0.00 71 1013.9
20260505035717 15 165 4.8 4.8 0.00 0.00 0.00 72 1013.8
20260505035213 15 174 0.0 1.6 0.00 0.00 0.00 73 1013.7
20260505034710 15 173 1.6 1.6 0.00 0.00 0.00 73 1013.5
20260505034207 15 178 1.6 1.6 0.00 0.00 0.00 72 1013.7
20260505033703 15 0 4.8 8.0 0.00 0.00 0.00 71 1013.6
20260505033201 15 221 3.2 3.2 0.00 0.00 0.00 71 1013.3
20260505032659 15 135 4.8 4.8 0.00 0.00 0.00 70 1013.3
20260505032155 15 178 3.2 3.2 0.00 0.00 0.00 70 1013.3
20260505031652 15 221 3.2 3.2 0.00 0.00 0.00 70 1013.6
20260505031149 15 175 4.8 4.8 0.00 0.00 0.00 70 1013.3
20260505030646 15 196 3.2 3.2 0.00 0.00 0.00 70 1013.5
20260505030141 15 161 3.2 4.8 0.00 0.00 0.00 70 1013.5
20260505025638 15 210 3.2 8.0 0.00 0.00 0.00 69 1013.4
20260505025136 15 201 3.2 4.8 0.00 0.00 0.00 69 1013.6
20260505024633 15 165 1.6 3.2 0.00 0.00 0.00 69 1013.5
20260505024131 15 288 4.8 4.8 0.00 0.00 0.00 69 1013.5
20260505023628 15 178 1.6 1.6 0.00 0.00 0.00 69 1013.3
20260505023125 15 193 1.6 3.2 0.00 0.00 0.00 68 1013.4
20260505022623 15 354 6.4 9.7 0.00 0.00 0.00 67 1013.5
20260505022119 15 193 3.2 3.2 0.00 0.00 0.00 67 1013.3
20260505021616 15 166 1.6 1.6 0.00 0.00 0.00 67 1013.1
20260505021113 15 313 6.4 8.0 0.00 0.00 0.00 67 1013.4
20260505020608 15 96 3.2 3.2 0.00 0.00 0.00 66 1013.3
20260505020105 16 174 1.6 3.2 0.00 0.00 0.00 65 1013.1
20260505015602 16 215 3.2 3.2 0.00 0.00 0.00 64 1013.2
20260505015058 16 170 1.6 3.2 0.00 0.00 0.00 63 1013.0
20260505014555 16 189 3.2 3.2 0.00 0.00 0.00 63 1013.3
20260505014052 16 325 4.8 8.0 0.00 0.00 0.00 63 1013.2
20260505013549 16 24 4.8 8.0 0.00 0.00 0.00 63 1013.2
20260505013047 16 334 4.8 8.0 0.00 0.00 0.00 63 1013.3
20260505012545 16 142 4.8 8.0 0.00 0.00 0.00 63 1013.1
20260505012042 16 172 1.6 1.6 0.00 0.00 0.00 65 1013.2
20260505011537 16 267 4.8 4.8 0.00 0.00 0.00 65 1013.6
20260505011034 16 182 3.2 4.8 0.00 0.00 0.00 65 1013.4
20260505010530 16 175 0.0 0.0 0.00 0.00 0.00 65 1013.5
20260505010027 16 193 3.2 3.2 0.00 0.00 0.00 65 1013.5
20260505005523 16 171 0.0 1.6 0.00 0.00 0.00 65 1013.5
20260505005021 16 161 3.2 3.2 0.00 0.00 0.00 65 1013.5
20260505004517 16 151 4.8 4.8 0.00 0.00 0.00 65 1013.4
20260505004014 17 191 1.6 3.2 0.00 0.00 0.00 64 1013.5
20260505003511 17 178 1.6 1.6 0.00 0.00 0.00 64 1013.4
20260505003008 17 178 1.6 1.6 0.00 0.00 0.00 63 1013.5
20260505002503 17 168 3.2 4.8 0.00 0.00 0.00 64 1013.6
20260505002002 17 197 1.6 3.2 0.00 0.00 0.00 65 1013.4
20260505001459 17 165 1.6 1.6 0.00 0.00 0.00 65 1013.3
20260505000956 17 25 3.2 8.0 0.00 0.00 0.00 64 1013.4
20260505000454 17 180 3.2 3.2 0.00 0.00 0.00 63 1013.3
20260504235951 17 286 4.8 8.0 0.00 0.00 0.00 62 1013.4
20260504235448 17 12 6.4 9.7 0.00 0.00 0.00 61 1013.1
20260504234944 17 159 3.2 3.2 0.00 0.00 0.00 60 1013.4